Weather History for Russell, KS

Change the Weather History Date:

Monday, February 11, 2013

  Actual Average Record
Temperature  
Mean Temperature 30 °F -  
Max Temperature 42 °F 42 °F 81 °F (1951)
Min Temperature 19 °F 18 °F -10 °F (1981)
Degree Days  
Heating Degree Days 34    
Moisture  
Dew Point 16 °F    
Average Humidity 57    
Maximum Humidity 85    
Minimum Humidity 32    
Precipitation  
Precipitation 0.00 in - - ()
Sea Level Pressure  
Sea Level Pressure 30.18 in    
Wind  
Wind Speed 8 mph (NW)    
Max Wind Speed 13 mph    
Max Gust Speed -    
Visibility 10 miles    
Events      
Averages and records for this station are not official NWS values.
T = Trace of Precipitation, MM = Missing Value Source: NWS Daily Summary

Daily Weather History Graph

Daily Weather History Graph

Search for Another Location

Airport:

Trip Planner

Search our weather history database for the weather conditions in past years. The results will help you decide how hot, cold, wet, or windy it might be!

Date:

Astronomy

Feb. 11, 2013 Rise Set
Actual Time 7:30 AM CST 6:08 PM CST
Civil Twilight 7:03 AM CST 6:36 PM CST
Nautical Twilight 6:32 AM CST 7:07 PM CST
Astronomical Twilight 6:01 AM CST 7:38 PM CST
Moon 7:57 AM CST (2/11) 8:05 PM CST (2/11)
Length of Visible Light 11h 32m
Length of Day
10h 37m
Waxing Crescent, 3% of the Moon is Illuminated
Feb 11
Waxing Crescent
Feb 17
First Quarter
Feb 25
Full
Mar 4
Last Quarter
Mar 11
New

Hourly Weather History & Observations

Time (CST) Temp. Windchill Dew Point Humidity Pressure Visibility Wind Dir Wind Speed Gust Speed Precip Events Conditions
12:53 AM 27.0 °F 16.7 °F 19.9 °F 75% 30.10 in 10.0 mi West 11.5 mph - N/A   Clear
1:53 AM 27.0 °F 17.3 °F 19.9 °F 75% 30.11 in 10.0 mi WNW 10.4 mph - N/A   Clear
2:53 AM 25.0 °F 15.5 °F 19.0 °F 78% 30.14 in 10.0 mi WNW 9.2 mph - N/A   Clear
3:53 AM 21.0 °F 12.4 °F 17.1 °F 85% 30.15 in 10.0 mi West 6.9 mph - N/A   Clear
4:53 AM 21.0 °F 9.9 °F 17.1 °F 85% 30.16 in 10.0 mi WNW 10.4 mph - N/A   Clear
5:53 AM 24.1 °F 12.5 °F 18.0 °F 77% 30.17 in 10.0 mi WNW 12.7 mph - N/A   Clear
6:53 AM 23.0 °F 13.9 °F 16.0 °F 74% 30.19 in 10.0 mi WNW 8.1 mph - N/A   Clear
7:53 AM 19.9 °F 11.1 °F 16.0 °F 85% 30.23 in 10.0 mi West 6.9 mph - N/A   Clear
8:53 AM 26.1 °F 16.8 °F 18.0 °F 71% 30.24 in 10.0 mi WNW 9.2 mph - N/A   Clear
9:53 AM 32.0 °F 24.2 °F 19.0 °F 59% 30.24 in 10.0 mi NNW 9.2 mph - N/A   Clear
10:53 AM 35.1 °F 30.1 °F 16.0 °F 46% 30.25 in 10.0 mi North 5.8 mph - N/A   Clear
11:53 AM 36.0 °F 30.3 °F 16.0 °F 44% 30.25 in 10.0 mi NNW 6.9 mph - N/A   Clear
12:53 PM 37.9 °F 35.5 °F 16.0 °F 41% 30.22 in 10.0 mi Variable 3.5 mph - N/A   Clear
1:53 PM 39.9 °F 35.1 °F 16.0 °F 38% 30.19 in 10.0 mi NNW 6.9 mph - N/A   Partly Cloudy
2:53 PM 42.1 °F 39.2 °F 15.1 °F 34% 30.16 in 10.0 mi Variable 4.6 mph - N/A   Clear
3:53 PM 42.1 °F 37.7 °F 14.0 °F 32% 30.15 in 10.0 mi WNW 6.9 mph - N/A   Clear
4:53 PM 41.0 °F - 14.0 °F 33% 30.15 in 10.0 mi Calm Calm - N/A   Clear
5:53 PM 39.9 °F - 14.0 °F 35% 30.14 in 10.0 mi Calm Calm - N/A   Clear
6:53 PM 33.1 °F 27.7 °F 15.1 °F 48% 30.16 in 10.0 mi NE 5.8 mph - N/A   Clear
7:53 PM 33.1 °F 30.0 °F 15.1 °F 48% 30.18 in 10.0 mi NNE 3.5 mph - N/A   Clear
8:53 PM 28.9 °F - 14.0 °F 54% 30.20 in 10.0 mi Calm Calm - N/A   Clear
9:53 PM 30.9 °F 27.5 °F 14.0 °F 50% 30.19 in 10.0 mi NE 3.5 mph - N/A   Clear
10:53 PM 30.9 °F - 14.0 °F 50% 30.20 in 10.0 mi Calm Calm - N/A   Clear
11:53 PM 28.9 °F - 15.1 °F 56% 30.19 in 10.0 mi Calm Calm - N/A   Clear